QPF
0.16 0.15 0.14 0.12 0.12 0.12 0.11 0.10 0.09 0.08 0.06 0.06 0.06 0.05 0.04 0.04 0.04 0.03 0.02 0.03 0.03 0.04 0.03 0.03 0.03 0.04 0.06 0.09 0.10 0.08 0.08 0.07 0.05 0.04 0.04 0.03 0.04 0.04
0.14 0.15 0.14 0.12 0.11 0.11 0.12 0.11 0.10 0.10 0.09 0.07 0.07 0.06 0.05 0.03 0.03 0.02 0.02 0.02 0.04 0.04 0.04 0.05 0.06 0.07 0.08 0.10 0.11 0.10 0.07 0.06 0.03 0.03 0.04 0.04 0.05 0.05
0.11 0.11 0.11 0.11 0.11 0.10 0.10 0.11 0.10 0.09 0.09 0.07 0.05 0.04 0.04 0.04 0.04 0.04 0.04 0.05 0.06 0.05 0.06 0.08 0.09 0.10 0.10 0.12 0.13 0.11 0.07 0.04 0.03 0.03 0.03 0.04 0.05 0.06
0.09 0.09 0.08 0.09 0.09 0.10 0.09 0.10 0.10 0.09 0.08 0.07 0.05 0.04 0.04 0.05 0.05 0.07 0.09 0.09 0.09 0.08 0.08 0.09 0.11 0.11 0.11 0.12 0.14 0.12 0.07 0.04 0.04 0.03 0.03 0.03 0.04 0.05
0.08 0.08 0.08 0.08 0.08 0.09 0.09 0.09 0.09 0.09 0.08 0.07 0.06 0.05 0.05 0.04 0.04 0.06 0.08 0.09 0.10 0.09 0.09 0.10 0.10 0.09 0.09 0.10 0.11 0.10 0.06 0.05 0.04 0.04 0.04 0.04 0.04 0.05
0.06 0.06 0.06 0.07 0.07 0.07 0.08 0.08 0.08 0.09 0.08 0.09 0.08 0.06 0.05 0.04 0.05 0.07 0.07 0.08 0.08 0.08 0.09 0.09 0.08 0.07 0.07 0.06 0.07 0.08 0.06 0.04 0.04 0.04 0.04 0.04 0.05 0.05
0.05 0.04 0.04 0.05 0.06 0.06 0.07 0.08 0.08 0.07 0.07 0.07 0.07 0.06 0.05 0.06 0.08 0.09 0.08 0.07 0.07 0.07 0.07 0.07 0.06 0.05 0.05 0.05 0.05 0.06 0.05 0.05 0.04 0.04 0.04 0.03 0.04 0.04
0.05 0.04 0.04 0.04 0.05 0.05 0.05 0.06 0.06 0.06 0.06 0.06 0.06 0.07 0.07 0.08 0.09 0.09 0.07 0.07 0.08 0.07 0.06 0.05 0.04 0.05 0.05 0.04 0.04 0.04 0.04 0.04 0.04 0.04 0.04 0.03 0.03 0.03
0.04 0.03 0.03 0.03 0.03 0.03 0.04 0.04 0.04 0.04 0.05 0.05 0.05 0.06 0.08 0.09 0.10 0.08 0.07 0.07 0.08 0.07 0.04 0.04 0.04 0.04 0.04 0.04 0.04 0.04 0.04 0.04 0.04 0.03 0.03 0.02 0.02 0.02
0.03 0.03 0.02 0.02 0.02 0.02 0.03 0.04 0.03 0.03 0.03 0.03 0.03 0.04 0.05 0.07 0.07 0.06 0.06 0.05 0.06 0.05 0.04 0.04 0.04 0.04 0.03 0.03 0.03 0.03 0.04 0.03 0.03 0.02 0.02 0.02 0.01 0.02
0.03 0.03 0.03 0.02 0.02 0.03 0.04 0.04 0.03 0.02 0.02 0.02 0.03 0.03 0.04 0.04 0.04 0.04 0.04 0.04 0.05 0.05 0.03 0.03 0.03 0.03 0.03 0.03 0.03 0.03 0.03 0.03 0.03 0.02 0.02 0.01 0.01 0.01
0.03 0.03 0.03 0.03 0.03 0.03 0.04 0.04 0.03 0.03 0.03 0.03 0.03 0.03 0.03 0.03 0.03 0.02 0.03 0.03 0.04 0.03 0.02 0.02 0.02 0.02 0.03 0.03 0.02 0.02 0.02 0.02 0.02 0.02 0.02 0.01 0.01 0.00
0.03 0.03 0.03 0.03 0.03 0.03 0.04 0.04 0.03 0.03 0.03 0.03 0.03 0.03 0.03 0.04 0.03 0.02 0.02 0.02 0.02 0.02 0.02 0.02 0.02 0.02 0.03 0.03 0.02 0.02 0.02 0.02 0.01 0.01 0.01 0.01 0.01 0.01
0.03 0.03 0.02 0.03 0.03 0.03 0.04 0.03 0.03 0.03 0.03 0.03 0.03 0.03 0.04 0.04 0.04 0.03 0.02 0.02 0.02 0.02 0.02 0.02 0.03 0.02 0.02 0.02 0.02 0.02 0.02 0.01 0.01 0.01 0.01 0.00 0.00 0.00
0.03 0.03 0.02 0.02 0.03 0.03 0.03 0.03 0.03 0.03 0.03 0.03 0.03 0.03 0.03 0.04 0.04 0.03 0.02 0.02 0.02 0.02 0.02 0.02 0.02 0.02 0.02 0.02 0.02 0.02 0.02 0.01 0.01 0.01 0.00 0.00 0.00 0.00
0.03 0.03 0.03 0.03 0.03 0.03 0.03 0.03 0.03 0.03 0.03 0.03 0.03 0.03 0.03 0.04 0.03 0.03 0.02 0.02 0.02 0.02 0.02 0.02 0.02 0.02 0.02 0.02 0.02 0.02 0.01 0.01 0.01 0.00 0.00 0.00 0.00 0.00
0.03 0.03 0.03 0.03 0.03 0.03 0.03 0.03 0.04 0.03 0.02 0.02 0.03 0.03 0.03 0.04 0.03 0.02 0.02 0.02 0.02 0.02 0.02 0.01 0.01 0.01 0.01 0.01 0.01 0.01 0.01 0.01 0.00 0.00 0.00 0.00 0.00 0.00
0.03 0.03 0.03 0.03 0.03 0.03 0.03 0.04 0.04 0.03 0.02 0.02 0.02 0.03 0.03 0.03 0.03 0.02 0.02 0.01 0.01 0.01 0.01 0.01 0.01 0.01 0.01 0.01 0.01 0.01 0.01 0.01 0.00 0.00 0.01 0.01 0.01 0.00
0.03 0.03 0.03 0.03 0.03 0.03 0.04 0.04 0.03 0.03 0.02 0.02 0.02 0.02 0.02 0.02 0.02 0.02 0.01 0.01 0.01 0.01 0.01 0.01 0.01 0.01 0.01 0.01 0.01 0.01 0.02 0.01 0.01 0.00 0.01 0.01 0.01 0.01
0.03 0.03 0.03 0.03 0.03 0.03 0.04 0.03 0.03 0.03 0.03 0.03 0.02 0.02 0.02 0.02 0.02 0.02 0.01 0.01 0.01 0.01 0.01 0.01 0.01 0.02 0.02 0.02 0.02 0.01 0.02 0.02 0.01 0.01 0.01 0.01 0.01 0.01
0.03 0.03 0.03 0.03 0.03 0.03 0.03 0.02 0.02 0.03 0.03 0.03 0.03 0.02 0.01 0.01 0.01 0.01 0.01 0.01 0.01 0.01 0.01 0.01 0.01 0.01 0.02 0.02 0.02 0.01 0.01 0.01 0.01 0.01 0.01 0.01 0.01 0.01
0.02 0.03 0.03 0.03 0.03 0.03 0.02 0.02 0.02 0.03 0.03 0.03 0.02 0.02 0.01 0.01 0.01 0.01 0.02 0.02 0.01 0.01 0.01 0.01 0.01 0.01 0.01 0.02 0.02 0.01 0.01 0.01 0.01 0.01 0.01 0.02 0.02 0.02
0.03 0.03 0.03 0.03 0.02 0.02 0.02 0.02 0.02 0.03 0.03 0.02 0.02 0.02 0.01 0.01 0.01 0.01 0.02 0.01 0.01 0.01 0.01 0.01 0.01 0.01 0.01 0.02 0.01 0.01 0.01 0.01 0.01 0.01 0.01 0.01 0.01 0.02
MSLP
1004.66 1004.91 1005.50 1006.36 1007.42 1008.58 1009.75 1010.84 1011.81 1012.65 1013.34 1013.92 1014.41 1014.84 1015.23 1015.61 1015.97 1016.32 1016.64 1016.94 1017.21 1017.45 1017.68 1017.90 1018.11 1018.30 1018.48 1018.63 1018.75 1018.82 1018.85 1018.83 1018.77 1018.68 1018.57 1018.45 1018.33 1018.21
1003.91 1004.03 1004.49 1005.24 1006.21 1007.33 1008.50 1009.64 1010.71 1011.67 1012.50 1013.22 1013.83 1014.37 1014.86 1015.30 1015.70 1016.07 1016.40 1016.70 1016.97 1017.21 1017.42 1017.62 1017.80 1017.97 1018.12 1018.25 1018.34 1018.40 1018.42 1018.40 1018.35 1018.28 1018.19 1018.09 1017.98 1017.86
1003.26 1003.29 1003.64 1004.28 1005.16 1006.22 1007.37 1008.54 1009.68 1010.74 1011.69 1012.54 1013.28 1013.94 1014.52 1015.03 1015.49 1015.90 1016.25 1016.56 1016.83 1017.05 1017.24 1017.41 1017.55 1017.67 1017.78 1017.86 1017.91 1017.95 1017.95 1017.94 1017.90 1017.85 1017.79 1017.71 1017.61 1017.49
1002.67 1002.64 1002.90 1003.45 1004.25 1005.25 1006.38 1007.57 1008.75 1009.88 1010.93 1011.89 1012.75 1013.51 1014.18 1014.78 1015.31 1015.76 1016.15 1016.48 1016.75 1016.96 1017.13 1017.25 1017.34 1017.41 1017.46 1017.48 1017.50 1017.50 1017.49 1017.47 1017.45 1017.42 1017.38 1017.32 1017.23 1017.12
1002.08 1002.02 1002.23 1002.73 1003.47 1004.43 1005.53 1006.71 1007.91 1009.09 1010.21 1011.25 1012.19 1013.04 1013.81 1014.49 1015.08 1015.60 1016.04 1016.40 1016.68 1016.89 1017.04 1017.14 1017.18 1017.19 1017.18 1017.15 1017.12 1017.08 1017.05 1017.03 1017.02 1017.00 1016.97 1016.93 1016.85 1016.74
1001.43 1001.38 1001.59 1002.07 1002.79 1003.72 1004.79 1005.96 1007.17 1008.36 1009.51 1010.59 1011.59 1012.51 1013.35 1014.10 1014.77 1015.35 1015.86 1016.27 1016.58 1016.81 1016.96 1017.03 1017.05 1017.01 1016.95 1016.87 1016.79 1016.72 1016.67 1016.63 1016.62 1016.60 1016.58 1016.54 1016.47 1016.34
1000.69 1000.69 1000.94 1001.44 1002.17 1003.09 1004.15 1005.30 1006.49 1007.68 1008.82 1009.92 1010.95 1011.91 1012.79 1013.60 1014.34 1015.00 1015.57 1016.05 1016.42 1016.69 1016.85 1016.93 1016.93 1016.86 1016.76 1016.64 1016.53 1016.43 1016.35 1016.29 1016.26 1016.24 1016.21 1016.16 1016.07 1015.92
999.87 999.95 1000.28 1000.83 1001.60 1002.54 1003.60 1004.73 1005.90 1007.05 1008.17 1009.25 1010.27 1011.24 1012.16 1013.02 1013.82 1014.55 1015.20 1015.75 1016.19 1016.51 1016.71 1016.81 1016.82 1016.75 1016.63 1016.48 1016.34 1016.20 1016.10 1016.02 1015.96 1015.91 1015.85 1015.77 1015.64 1015.46
999.00 999.20 999.63 1000.28 1001.11 1002.09 1003.16 1004.28 1005.40 1006.51 1007.59 1008.63 1009.63 1010.59 1011.51 1012.41 1013.26 1014.05 1014.77 1015.40 1015.91 1016.30 1016.56 1016.70 1016.73 1016.67 1016.55 1016.39 1016.22 1016.06 1015.92 1015.80 1015.70 1015.61 1015.50 1015.37 1015.19 1014.97
998.17 998.51 999.07 999.83 1000.75 1001.77 1002.87 1003.97 1005.07 1006.13 1007.15 1008.14 1009.09 1010.03 1010.95 1011.86 1012.74 1013.59 1014.37 1015.07 1015.65 1016.10 1016.42 1016.61 1016.67 1016.63 1016.52 1016.36 1016.17 1015.99 1015.81 1015.65 1015.50 1015.34 1015.17 1014.97 1014.73 1014.44
997.47 997.96 998.66 999.54 1000.55 1001.64 1002.76 1003.87 1004.94 1005.95 1006.92 1007.85 1008.76 1009.66 1010.56 1011.47 1012.37 1013.24 1014.07 1014.81 1015.45 1015.96 1016.33 1016.56 1016.66 1016.64 1016.55 1016.38 1016.19 1015.98 1015.76 1015.55 1015.33 1015.11 1014.86 1014.58 1014.27 1013.91
996.97 997.61 998.46 999.47 1000.57 1001.73 1002.87 1003.98 1005.03 1006.01 1006.93 1007.81 1008.67 1009.53 1010.40 1011.30 1012.19 1013.08 1013.92 1014.69 1015.36 1015.90 1016.30 1016.56 1016.69 1016.70 1016.61 1016.45 1016.24 1016.01 1015.75 1015.49 1015.21 1014.90 1014.57 1014.21 1013.82 1013.39
996.72 997.52 998.51 999.62 1000.81 1002.02 1003.19 1004.30 1005.33 1006.28 1007.17 1008.01 1008.83 1009.65 1010.50 1011.36 1012.24 1013.11 1013.95 1014.71 1015.38 1015.93 1016.34 1016.61 1016.75 1016.77 1016.69 1016.53 1016.32 1016.06 1015.76 1015.44 1015.10 1014.72 1014.31 1013.86 1013.39 1012.89
996.75 997.68 998.78 999.99 1001.24 1002.48 1003.67 1004.78 1005.80 1006.73 1007.59 1008.40 1009.19 1009.99 1010.80 1011.64 1012.48 1013.32 1014.12 1014.86 1015.50 1016.03 1016.42 1016.69 1016.83 1016.85 1016.77 1016.60 1016.37 1016.09 1015.76 1015.39 1014.99 1014.54 1014.05 1013.52 1012.97 1012.41
997.04 998.07 999.25 1000.51 1001.79 1003.05 1004.24 1005.34 1006.35 1007.27 1008.11 1008.91 1009.69 1010.46 1011.25 1012.05 1012.85 1013.64 1014.39 1015.07 1015.66 1016.15 1016.51 1016.76 1016.88 1016.89 1016.81 1016.64 1016.40 1016.09 1015.73 1015.32 1014.85 1014.33 1013.78 1013.18 1012.56 1011.93
997.55 998.65 999.86 1001.13 1002.40 1003.65 1004.82 1005.90 1006.90 1007.81 1008.65 1009.45 1010.22 1010.98 1011.74 1012.51 1013.26 1013.99 1014.68 1015.30 1015.84 1016.27 1016.59 1016.80 1016.90 1016.90 1016.80 1016.63 1016.37 1016.05 1015.65 1015.19 1014.67 1014.09 1013.47 1012.80 1012.11 1011.42
998.25 999.36 1000.55 1001.78 1003.02 1004.21 1005.35 1006.40 1007.38 1008.28 1009.13 1009.93 1010.70 1011.46 1012.21 1012.94 1013.66 1014.33 1014.95 1015.51 1015.98 1016.35 1016.63 1016.80 1016.88 1016.87 1016.76 1016.58 1016.31 1015.96 1015.53 1015.03 1014.45 1013.80 1013.11 1012.37 1011.61 1010.85
999.10 1000.17 1001.30 1002.45 1003.61 1004.73 1005.80 1006.81 1007.76 1008.66 1009.51 1010.32 1011.11 1011.87 1012.60 1013.31 1013.98 1014.61 1015.17 1015.67 1016.08 1016.40 1016.64 1016.79 1016.85 1016.82 1016.71 1016.51 1016.22 1015.85 1015.38 1014.82 1014.18 1013.47 1012.69 1011.88 1011.05 1010.22
1000.10 1001.07 1002.10 1003.14 1004.19 1005.21 1006.21 1007.17 1008.09 1008.98 1009.83 1010.65 1011.44 1012.20 1012.93 1013.61 1014.25 1014.83 1015.34 1015.79 1016.15 1016.44 1016.65 1016.78 1016.83 1016.79 1016.68 1016.47 1016.16 1015.75 1015.23 1014.61 1013.90 1013.11 1012.25 1011.35 1010.44 1009.55
1001.23 1002.08 1002.97 1003.88 1004.81 1005.73 1006.64 1007.54 1008.42 1009.29 1010.13 1010.96 1011.75 1012.50 1013.22 1013.87 1014.48 1015.02 1015.49 1015.89 1016.22 1016.48 1016.68 1016.80 1016.85 1016.82 1016.70 1016.48 1016.14 1015.69 1015.12 1014.43 1013.64 1012.76 1011.81 1010.83 1009.83 1008.86
1002.48 1003.20 1003.95 1004.72 1005.52 1006.33 1007.16 1007.99 1008.83 1009.67 1010.50 1011.31 1012.09 1012.82 1013.51 1014.14 1014.70 1015.20 1015.63 1016.00 1016.31 1016.56 1016.75 1016.88 1016.94 1016.91 1016.79 1016.56 1016.19 1015.70 1015.07 1014.31 1013.43 1012.46 1011.43 1010.35 1009.28 1008.23
1003.85 1004.43 1005.04 1005.69 1006.37 1007.08 1007.82 1008.59 1009.38 1010.18 1010.98 1011.76 1012.50 1013.20 1013.85 1014.43 1014.95 1015.40 1015.80 1016.14 1016.43 1016.68 1016.87 1017.02 1017.08 1017.07 1016.95 1016.70 1016.31 1015.78 1015.09 1014.26 1013.31 1012.26 1011.14 1009.98 1008.83 1007.72
1005.29 1005.75 1006.25 1006.78 1007.36 1007.98 1008.64 1009.35 1010.08 1010.83 1011.58 1012.31 1013.00 1013.65 1014.24 1014.76 1015.23 1015.63 1015.99 1016.30 1016.58 1016.82 1017.03 1017.18 1017.26 1017.26 1017.14 1016.89 1016.48 1015.91 1015.18 1014.30 1013.28 1012.16 1010.98 1009.76 1008.55 1007.38
Thickness
5498 5496 5495 5495 5493 5492 5490 5488 5488 5490 5491 5490 5487 5487 5486 5486 5487 5488 5490 5492 5493 5495 5497 5499 5500 5500 5501 5502 5502 5503 5502 5502 5501 5500 5500 5499 5499 5498
5487 5486 5484 5484 5483 5482 5481 5480 5479 5479 5480 5481 5478 5478 5478 5478 5478 5479 5480 5482 5484 5486 5489 5491 5491 5492 5492 5492 5493 5493 5493 5492 5492 5491 5490 5490 5490 5489
5477 5476 5475 5475 5474 5472 5471 5471 5470 5469 5469 5470 5469 5469 5469 5470 5471 5471 5473 5475 5476 5478 5481 5482 5483 5483 5483 5482 5483 5484 5483 5483 5482 5482 5482 5481 5480 5479
5468 5467 5466 5466 5465 5463 5462 5462 5462 5461 5460 5460 5460 5459 5460 5461 5462 5463 5465 5466 5467 5470 5471 5473 5473 5473 5474 5473 5474 5474 5475 5474 5473 5473 5473 5472 5471 5470
5458 5458 5457 5457 5456 5455 5454 5454 5454 5453 5453 5452 5452 5451 5451 5452 5453 5455 5456 5457 5458 5459 5461 5462 5463 5464 5465 5463 5464 5465 5465 5465 5465 5464 5463 5463 5463 5462
5449 5449 5448 5448 5448 5447 5447 5447 5446 5445 5444 5444 5444 5444 5444 5445 5445 5446 5448 5448 5448 5449 5451 5451 5452 5453 5453 5453 5454 5455 5455 5455 5455 5455 5454 5454 5453 5453
5440 5439 5439 5441 5441 5441 5441 5440 5440 5439 5437 5437 5438 5438 5438 5437 5437 5437 5438 5438 5438 5438 5440 5441 5442 5443 5442 5443 5443 5443 5444 5444 5445 5445 5444 5444 5443 5442
5431 5431 5432 5433 5434 5434 5435 5434 5434 5433 5431 5431 5431 5431 5431 5430 5429 5429 5429 5429 5429 5430 5430 5432 5432 5433 5433 5434 5434 5435 5435 5435 5435 5435 5435 5434 5434 5433
5423 5424 5424 5425 5425 5425 5426 5426 5426 5426 5426 5425 5425 5424 5424 5424 5423 5422 5421 5420 5421 5420 5420 5424 5424 5424 5426 5426 5427 5426 5426 5426 5426 5426 5425 5425 5424 5423
5414 5415 5416 5416 5416 5417 5417 5417 5417 5417 5418 5418 5418 5417 5418 5417 5416 5416 5414 5413 5413 5412 5412 5414 5415 5415 5417 5417 5418 5417 5417 5417 5416 5416 5415 5415 5415 5414
5406 5407 5408 5409 5409 5410 5410 5410 5410 5409 5409 5410 5411 5411 5411 5411 5409 5408 5407 5407 5407 5405 5403 5404 5405 5405 5408 5408 5408 5407 5407 5407 5407 5406 5406 5406 5406 5406
5397 5398 5400 5402 5402 5401 5401 5401 5401 5401 5402 5402 5403 5403 5403 5402 5402 5402 5402 5401 5398 5398 5397 5395 5396 5396 5398 5399 5398 5398 5398 5397 5397 5397 5397 5397 5396 5397
5389 5390 5391 5394 5394 5393 5394 5394 5395 5395 5394 5395 5394 5395 5395 5395 5395 5395 5395 5394 5392 5391 5391 5389 5389 5388 5386 5388 5390 5390 5390 5389 5389 5388 5387 5387 5387 5388
5381 5382 5384 5386 5386 5386 5386 5388 5388 5388 5387 5387 5388 5387 5387 5388 5388 5388 5387 5387 5386 5386 5386 5385 5383 5382 5380 5380 5382 5382 5382 5381 5380 5380 5379 5379 5379 5380
5375 5376 5378 5379 5379 5379 5380 5381 5382 5380 5380 5381 5381 5380 5381 5381 5381 5381 5381 5380 5380 5379 5379 5379 5378 5377 5375 5374 5374 5374 5373 5373 5372 5372 5372 5372 5372 5373
5368 5369 5371 5371 5371 5372 5373 5373 5374 5374 5374 5374 5374 5374 5375 5375 5375 5375 5375 5375 5374 5373 5372 5372 5372 5371 5370 5368 5367 5366 5365 5364 5365 5365 5365 5366 5367 5367
5362 5363 5363 5363 5363 5365 5365 5366 5367 5368 5368 5368 5368 5368 5368 5368 5368 5368 5368 5369 5368 5367 5366 5366 5365 5365 5364 5363 5362 5361 5361 5360 5359 5359 5360 5362 5363 5364
5357 5356 5356 5356 5357 5358 5359 5359 5361 5362 5362 5362 5361 5362 5362 5362 5362 5362 5362 5362 5362 5361 5360 5359 5359 5360 5360 5359 5357 5357 5356 5355 5355 5355 5355 5357 5361 5362
5351 5350 5351 5351 5352 5352 5353 5354 5355 5356 5355 5356 5356 5356 5357 5357 5357 5357 5357 5357 5356 5355 5354 5354 5353 5353 5353 5352 5352 5353 5352 5352 5353 5353 5353 5353 5356 5359
5345 5345 5346 5346 5347 5347 5348 5350 5350 5350 5351 5350 5350 5351 5351 5352 5352 5352 5352 5351 5350 5350 5349 5349 5348 5347 5346 5345 5346 5347 5348 5348 5349 5350 5351 5352 5353 5356
5339 5340 5341 5341 5342 5343 5344 5345 5345 5345 5346 5346 5346 5346 5346 5347 5347 5347 5346 5346 5346 5345 5345 5344 5343 5344 5343 5343 5342 5344 5345 5346 5347 5347 5348 5349 5351 5353
5335 5336 5337 5338 5338 5339 5340 5340 5340 5341 5341 5341 5341 5341 5341 5342 5342 5342 5342 5342 5341 5341 5340 5340 5340 5341 5341 5340 5339 5340 5342 5344 5345 5346 5347 5347 5346 5348
5333 5333 5334 5335 5335 5336 5336 5336 5337 5337 5337 5337 5337 5337 5337 5337 5337 5338 5338 5337 5337 5337 5337 5336 5336 5337 5337 5337 5337 5337 5338 5340 5342 5344 5346 5346 5347 5348